Simultaneous Nadir Overpasses (SNOs) Predictions

Prediction of SNOs between AQUA and METOP-A Satellite Orbit:

Table of predicted SNOs for the next 14.0 days since TLE Epoch: 4/4/2013
Index Date (AQUA) Time (AQUA) Lat,Lon (AQUA) SZA (AQUA ) Date (METOP-A) Time (METOP-A) Lat,Lon (METOP-A) SZA (METOP-A ) Distance(km) Time Diff (sec)
1 04/06/2013 22:44:27 73.86,-166.92 67.09 04/06/2013 22:43:48 73.85,-167.01 67.09 3.04 39
2 04/06/2013 23:33:54 -73.94, 0.55 112.85 04/06/2013 23:34:28 -73.95, 0.54 112.84 1.36 34
3 04/09/2013 18:18:45 73.86,-100.49 66.03 04/09/2013 18:18:14 73.86,-100.59 66.05 3.09 31
4 04/09/2013 19:08:12 -73.94, 66.98 113.90 04/09/2013 19:08:54 -73.96, 66.97 113.88 2.54 42
5 04/12/2013 13:53:02 73.90, -34.14 65.04 04/12/2013 13:52:38 73.92, -34.06 65.06 3.03 24
6 04/12/2013 14:42:29 -73.97, 133.34 114.90 04/12/2013 14:43:19 -73.96, 133.37 114.92 1.53 50
7 04/15/2013 08:37:43 -73.48,-134.42 116.42 04/15/2013 08:36:34 -73.43,-136.14 116.40 54.71 69
8 04/15/2013 09:27:19 73.93, 32.24 64.04 04/15/2013 09:27:04 73.91, 32.33 64.03 2.95 15
9 04/15/2013 10:16:45 -73.94,-160.15 115.96 04/15/2013 10:17:45 -73.96,-160.24 115.94 3.30 60
10 04/18/2013 04:12:06 -73.85, -68.78 117.03 04/18/2013 04:10:52 -73.82, -68.84 117.05 3.87 74
11 04/18/2013 05:01:34 73.88, 98.78 63.00 04/18/2013 05:01:30 73.90, 98.70 63.03 3.44 4




NCC Satellite Simultaneous Nadir Overpasses (SNOs) Prediction Service
